Location: Columbia
(38.9520°N, 92.3340°W)
Time: 06:13:17
(UTC-05:00)

Meteor 1-4 Rocket - Visible Passes

Search period start: 24 June 2018 00:00
Search period end: 04 July 2018 00:00
Orbit: 452 x 506 km, 81.2° (Epoch: 23 June)

Date Brightness Start Highest point End Pass type
(mag) Time Alt. Az. Time Alt. Az. Time Alt. Az.
24 Jun 4.0 02:46:08 31° E 02:46:08 31° E 02:49:26 10° NNE visible
24 Jun 4.7 04:20:24 13° W 04:21:19 14° WNW 04:23:20 10° NW visible
25 Jun 4.8 02:20:02 19° E 02:20:02 19° E 02:22:26 10° NE visible
25 Jun 4.1 03:54:18 22° W 03:54:43 22° WNW 03:57:41 10° NNW visible
26 Jun 5.4 01:53:56 11° E 01:53:56 11° E 01:54:41 10° ENE visible
26 Jun 3.4 03:28:12 37° WNW 03:28:12 37° WNW 03:31:38 10° N visible
27 Jun 2.9 03:02:04 60° NW 03:02:04 60° NW 03:05:21 10° N visible
28 Jun 3.4 02:35:55 51° NE 02:35:55 51° NE 02:38:54 10° NNE visible
29 Jun 4.2 02:09:46 31° ENE 02:09:46 31° ENE 02:12:15 10° NNE visible
29 Jun 5.0 03:44:01 12° WNW 03:44:03 12° WNW 03:45:36 10° NW visible
30 Jun 4.9 01:43:35 19° ENE 01:43:35 19° ENE 01:45:22 10° NE visible
30 Jun 4.5 03:17:51 19° WNW 03:17:51 19° WNW 03:20:12 10° NNW visible
01 Jul 5.4 01:17:24 12° ENE 01:17:24 12° ENE 01:17:59 10° ENE visible
01 Jul 4.1 02:51:39 29° NW 02:51:39 29° NW 02:54:14 10° N visible
02 Jul 3.9 02:25:27 37° NNW 02:25:27 37° NNW 02:28:00 10° N visible
03 Jul 4.1 01:59:14 36° NNE 01:59:14 36° NNE 02:01:35 10° N visible
